カタログに戻る

ECHO 2 DEB

METAL OBJ

運用中PO
NORAD 743·DEBRIS·🇺🇸 United States

打ち上げ Jan 25, 1964 から Vandenberg Space Force Base

Loading…

次のパス (今後24時間)

TLE

最新Source: Space-Track

元期: Sep 14, 2026, 13:05 UTC

1 00743U 64004D   26257.54535135  .00000059  00000-0  97482-4 0  9999
2 00743  81.5176  92.0567 0174474 133.6495 256.7876 13.26895520 29970

AllMySatでECHO 2 DEBをリアルタイム追跡

Download on the App Store